User: anonymous   Login
Location: Hickory_Viewmont
(35.7830°N, 81.3170°W)
Time: 08:17:53
(UTC-04:00)
Language:

Okean-O - Orbit

View from above orbital plane
View from above orbital plane
View from above satellite
View from above satellite

Ground track
Ground track

The orbit data is extracted from the following two-line orbital elements,

1 25860U 99039A   15247.01557628  .00000245  00000-0  42999-4 0  9992
2 25860  98.1031 215.2358 0001909  84.5357 317.3450 14.76122760867619
Epoch (UTC): 04 September 2015 00:22:25
Eccentricity: 0.0001909
inclination: 98.1031°
perigee height: 640 km
apogee height: 643 km
right ascension of ascending node: 215.2358°
argument of perigee: 84.5357°
revolutions per day: 14.76122760
mean anomaly at epoch: 317.3450°
orbit number at epoch: 86761

The dashed part of the orbit path shows where the satellite is in the earth's shadow,  

DLR